sat.trackr.live / text

‹ back to catalog

STARLINK-5532

NORAD 55760 · 2023-028V

PAYLOAD ACTIVE UNKNOWN

§ Identity

Operator
Country
US
Launch date
2023-03-03
Launch site
AFWTR
Launch vehicle
Mass (kg)
RCS (m²)

Purposes: comms

External: N2YO · Heavens-Above · Gunter

§ Orbital elements

Epoch: 2026-05-25T04:26:08.867904Z

Period
96.11 min
Inclination
70.0010°
Eccentricity
0.0002689
Mean motion
14.98332629 rev/d
Perigee alt
570.2 km
Apogee alt
573.9 km
Semi-major
6,950.2 km
B*
-2.2716e-6
RAAN
51.3765°
Arg perigee
268.0963°
Mean anomaly
91.9888°
Rev number
17,750

§ Raw data

STARLINK-55321 55760U 23028V   26145.18482486 -.00000120  00000+0 -22716-5 0  99942 55760  70.0010  51.3765 0002689 268.0963  91.9888 14.98332629177509

JSON: /api/v1/satellites/55760 · /tle

For live sub-satellite position, see the globe view (requires WebGL).

§ Visibility from observer

Set your observer location to see the next 7 days of passes ≥ 10°. The values pass through the URL so the page stays shareable.

No JS? Fill the form by hand. The geolocation button needs JavaScript.